NPT450 LRIA-LOWW

Flight info

Callsign NPT450
Flight time 1h 22m
Altitude 10000
Route ARPIG P133 TOMUC/N0451F400 DCT HUMOR DCT UCJOL DCT IZDUW DCT BALUX DCT TORNO DCT NATEX NATEX2W
Aircraft B738/M-SDE2E3FGHIRWXY/LB1

Departure

Time 2026-04-26 11:04
Airport Iaşi International Airport (LRIA)

Arrival

Time 2026-04-26 12:26
Airport Vienna International Airport (LOWW)
Time Latitude Longitude Altitude Speed Heading
2026-04-26 10:32 47.17566 27.61949 405 ft 0 kts 271°
2026-04-26 10:54 47.17566 27.61950 405 ft 0 kts 271°
2026-04-26 10:54 47.17565 27.61963 405 ft 0 kts 271°
2026-04-26 10:54 47.17565 27.61978 405 ft 0 kts 271°
2026-04-26 10:54 47.17565 27.62000 405 ft 0 kts 271°
2026-04-26 10:55 47.17566 27.62019 405 ft 0 kts 255°
2026-04-26 10:55 47.17570 27.62032 405 ft 0 kts 225°
2026-04-26 10:55 47.17584 27.62041 405 ft 0 kts 181°
2026-04-26 10:55 47.17587 27.62041 405 ft 0 kts 174°
2026-04-26 10:59 47.17585 27.62041 405 ft 1 kts 174°
2026-04-26 10:59 47.17549 27.62055 405 ft 10 kts 156°
2026-04-26 10:59 47.17482 27.62108 405 ft 10 kts 147°
2026-04-26 10:59 47.17438 27.62147 405 ft 8 kts 149°
2026-04-26 11:00 47.17398 27.62183 405 ft 9 kts 148°
2026-04-26 11:00 47.17348 27.62227 405 ft 9 kts 149°
2026-04-26 11:00 47.17289 27.62280 405 ft 12 kts 148°
2026-04-26 11:00 47.17265 27.62392 405 ft 12 kts 64°
2026-04-26 11:01 47.17291 27.62455 405 ft 0 kts 58°
2026-04-26 11:02 47.17292 27.62458 405 ft 3 kts 58°
2026-04-26 11:02 47.17320 27.62526 405 ft 10 kts 58°
2026-04-26 11:02 47.17364 27.62632 405 ft 8 kts 58°
2026-04-26 11:03 47.17395 27.62651 405 ft 5 kts 338°
2026-04-26 11:03 47.17435 27.62617 405 ft 12 kts 328°
2026-04-26 11:03 47.17754 27.62331 405 ft 96 kts 330°
2026-04-26 11:03 47.18455 27.61727 991 ft 121 kts 331°
2026-04-26 11:04 47.19151 27.61141 2393 ft 111 kts 333°
2026-04-26 11:04 47.19948 27.60546 3248 ft 146 kts 333°
2026-04-26 11:04 47.20957 27.59800 3943 ft 183 kts 333°
2026-04-26 11:04 47.22224 27.58865 4424 ft 221 kts 333°
2026-04-26 11:05 47.23646 27.57668 5052 ft 248 kts 321°
2026-04-26 11:05 47.24717 27.55706 6373 ft 246 kts 300°
2026-04-26 11:05 47.25505 27.53455 7572 ft 251 kts 296°
2026-04-26 11:05 47.26261 27.51101 8669 ft 258 kts 295°
2026-04-26 11:06 47.27038 27.48661 9333 ft 266 kts 294°
2026-04-26 11:06 47.27858 27.46148 9832 ft 286 kts 297°
2026-04-26 11:06 47.28798 27.43469 10771 ft 297 kts 297°
2026-04-26 11:06 47.29781 27.40715 11500 ft 318 kts 298°
2026-04-26 11:07 47.30852 27.37744 12244 ft 334 kts 298°
2026-04-26 11:07 47.31959 27.34692 13226 ft 341 kts 298°
2026-04-26 11:07 47.33089 27.31572 14247 ft 347 kts 298°
2026-04-26 11:07 47.34235 27.28411 15251 ft 352 kts 298°
2026-04-26 11:08 47.35407 27.25186 16221 ft 358 kts 298°
2026-04-26 11:08 47.36604 27.21942 17159 ft 363 kts 298°
2026-04-26 11:08 47.37815 27.18638 18071 ft 368 kts 298°
2026-04-26 11:08 47.39033 27.15291 18944 ft 374 kts 298°
2026-04-26 11:09 47.40260 27.11901 19796 ft 379 kts 298°
2026-04-26 11:09 47.41517 27.08418 20637 ft 384 kts 298°
2026-04-26 11:09 47.42776 27.04916 21441 ft 388 kts 298°
2026-04-26 11:09 47.44049 27.01366 22217 ft 393 kts 298°
2026-04-26 11:10 47.45338 26.97765 22967 ft 398 kts 298°
2026-04-26 11:10 47.46622 26.94175 23669 ft 403 kts 298°
2026-04-26 11:10 47.47938 26.90490 24341 ft 408 kts 298°
2026-04-26 11:10 47.49220 26.86747 25010 ft 412 kts 294°
2026-04-26 11:11 47.50157 26.82708 25657 ft 416 kts 284°
2026-04-26 11:11 47.50662 26.78480 26277 ft 420 kts 276°
2026-04-26 11:11 47.50861 26.74147 26874 ft 424 kts 272°
2026-04-26 11:11 47.50929 26.69772 27442 ft 428 kts 270°
2026-04-26 11:12 47.50956 26.65359 27990 ft 432 kts 270°
2026-04-26 11:12 47.50984 26.60889 28526 ft 435 kts 270°
2026-04-26 11:12 47.51013 26.56396 29042 ft 439 kts 270°
2026-04-26 11:12 47.51043 26.51863 29536 ft 442 kts 270°
2026-04-26 11:13 47.51074 26.47290 30009 ft 446 kts 270°
2026-04-26 11:13 47.51104 26.42708 30456 ft 449 kts 270°
2026-04-26 11:13 47.51135 26.38060 30896 ft 452 kts 270°
2026-04-26 11:13 47.51179 26.33389 31316 ft 455 kts 271°
2026-04-26 11:14 47.51254 26.28696 31721 ft 458 kts 271°
2026-04-26 11:14 47.51307 26.23960 32157 ft 459 kts 271°
2026-04-26 11:14 47.51345 26.19236 32709 ft 458 kts 270°
2026-04-26 11:14 47.51374 26.14608 33239 ft 457 kts 270°
2026-04-26 11:15 47.51398 26.09896 33758 ft 455 kts 270°
2026-04-26 11:15 47.51417 26.05221 34260 ft 454 kts 270°
2026-04-26 11:15 47.51433 26.00554 34755 ft 453 kts 270°
2026-04-26 11:15 47.51449 25.95888 35239 ft 452 kts 270°
2026-04-26 11:16 47.51464 25.91235 35711 ft 451 kts 270°
2026-04-26 11:16 47.51475 25.86604 36169 ft 450 kts 270°
2026-04-26 11:16 47.51451 25.81969 36592 ft 450 kts 269°
2026-04-26 11:16 47.51421 25.77325 36992 ft 450 kts 269°
2026-04-26 11:17 47.51389 25.72688 37385 ft 450 kts 269°
2026-04-26 11:17 47.51354 25.68061 37766 ft 450 kts 269°
2026-04-26 11:17 47.51318 25.63432 38135 ft 450 kts 269°
2026-04-26 11:17 47.51280 25.58794 38493 ft 450 kts 269°
2026-04-26 11:18 47.51241 25.54164 38842 ft 450 kts 269°
2026-04-26 11:18 47.51200 25.49589 39174 ft 450 kts 269°
2026-04-26 11:18 47.51158 25.44955 39509 ft 450 kts 269°
2026-04-26 11:18 47.51114 25.40332 39831 ft 450 kts 269°
2026-04-26 11:19 47.51084 25.35689 39985 ft 454 kts 270°
2026-04-26 11:19 47.51085 25.31007 39993 ft 455 kts 270°
2026-04-26 11:19 47.51025 25.21633 39999 ft 452 kts 269°
2026-04-26 11:20 47.50945 25.13941 39999 ft 449 kts 269°
2026-04-26 11:20 47.50813 25.03124 40000 ft 450 kts 269°
2026-04-26 11:21 47.50693 24.93934 40000 ft 450 kts 269°
2026-04-26 11:21 47.50480 24.84669 40000 ft 450 kts 266°
2026-04-26 11:22 47.50054 24.75436 40000 ft 450 kts 266°
2026-04-26 11:22 47.49622 24.66206 40000 ft 450 kts 266°
2026-04-26 11:23 47.49187 24.56973 40000 ft 450 kts 266°
2026-04-26 11:23 47.48749 24.47758 40000 ft 450 kts 266°
2026-04-26 11:24 47.48307 24.38527 40000 ft 450 kts 266°
2026-04-26 11:24 47.47916 24.29356 40000 ft 450 kts 266°
2026-04-26 11:25 47.47500 24.20113 40000 ft 450 kts 266°
2026-04-26 11:25 47.47068 24.10871 39999 ft 450 kts 266°
2026-04-26 11:26 47.46628 24.01716 39998 ft 450 kts 266°
2026-04-26 11:26 47.46175 23.92503 39998 ft 450 kts 266°
2026-04-26 11:27 47.45712 23.83272 39997 ft 450 kts 265°
2026-04-26 11:27 47.45240 23.74050 39999 ft 450 kts 265°
2026-04-26 11:28 47.44761 23.64826 39998 ft 450 kts 265°
2026-04-26 11:28 47.44275 23.55617 39996 ft 450 kts 265°
2026-04-26 11:29 47.43784 23.46454 39997 ft 450 kts 265°
2026-04-26 11:29 47.43282 23.37238 39995 ft 450 kts 265°
2026-04-26 11:30 47.42856 23.29517 39995 ft 450 kts 265°
2026-04-26 11:30 47.42258 23.18838 39994 ft 450 kts 265°
2026-04-26 11:31 47.41734 23.09613 39994 ft 449 kts 265°
2026-04-26 11:31 47.41203 23.00411 39994 ft 449 kts 265°
2026-04-26 11:32 47.40669 22.91272 39994 ft 449 kts 265°
2026-04-26 11:32 47.40123 22.82069 39994 ft 449 kts 265°
2026-04-26 11:33 47.39569 22.72854 39995 ft 449 kts 265°
2026-04-26 11:33 47.39009 22.63656 39994 ft 449 kts 265°
2026-04-26 11:34 47.38442 22.54470 39994 ft 449 kts 265°
2026-04-26 11:34 47.37869 22.45305 39997 ft 449 kts 264°
2026-04-26 11:35 47.37309 22.36124 39999 ft 449 kts 265°
2026-04-26 11:35 47.36837 22.28490 40000 ft 449 kts 264°
2026-04-26 11:36 47.36141 22.17837 40000 ft 449 kts 264°
2026-04-26 11:36 47.35526 22.08665 40000 ft 449 kts 264°
2026-04-26 11:37 47.34904 21.99499 40000 ft 449 kts 264°
2026-04-26 11:37 47.34395 21.90351 40000 ft 449 kts 269°
2026-04-26 11:38 47.34465 21.81146 40000 ft 449 kts 271°
2026-04-26 11:38 47.34563 21.71922 40000 ft 449 kts 271°
2026-04-26 11:39 47.34628 21.64246 39999 ft 449 kts 270°
2026-04-26 11:39 47.34701 21.53529 40000 ft 449 kts 270°
2026-04-26 11:40 47.34743 21.45819 40000 ft 449 kts 270°
2026-04-26 11:40 47.34817 21.36617 40000 ft 449 kts 271°
2026-04-26 11:42 47.35040 21.00767 40000 ft 449 kts 270°
2026-04-26 11:43 47.35067 20.91542 40000 ft 449 kts 270°
2026-04-26 11:43 47.35085 20.82405 39999 ft 449 kts 270°
2026-04-26 11:44 47.35095 20.73136 39999 ft 449 kts 270°
2026-04-26 11:44 47.35098 20.63930 39999 ft 449 kts 270°
2026-04-26 11:45 47.35093 20.54769 39998 ft 449 kts 270°
2026-04-26 11:45 47.35080 20.45505 39998 ft 449 kts 270°
2026-04-26 11:46 47.35060 20.36358 39998 ft 449 kts 270°
2026-04-26 11:46 47.35032 20.27144 39998 ft 449 kts 270°
2026-04-26 11:47 47.34997 20.17917 39998 ft 449 kts 269°
2026-04-26 11:47 47.34970 20.11805 39999 ft 449 kts 269°
2026-04-26 11:48 47.34905 19.99527 39999 ft 449 kts 269°
2026-04-26 11:48 47.34848 19.90320 39999 ft 449 kts 269°
2026-04-26 11:49 47.34784 19.81099 39999 ft 449 kts 269°
2026-04-26 11:49 47.34713 19.71905 39999 ft 449 kts 269°
2026-04-26 11:50 47.34634 19.62711 39986 ft 449 kts 269°
2026-04-26 11:50 47.34606 19.58097 39641 ft 446 kts 270°
2026-04-26 11:50 47.34579 19.53558 39061 ft 442 kts 269°
2026-04-26 11:51 47.34541 19.49026 38408 ft 441 kts 269°
2026-04-26 11:51 47.34495 19.44568 37760 ft 441 kts 269°
2026-04-26 11:51 47.34442 19.39989 37085 ft 440 kts 269°
2026-04-26 11:51 47.34387 19.35488 36407 ft 439 kts 269°
2026-04-26 11:52 47.34329 19.31031 35718 ft 438 kts 269°
2026-04-26 11:52 47.34270 19.26609 35169 ft 435 kts 269°
2026-04-26 11:52 47.34209 19.22106 34646 ft 430 kts 269°
2026-04-26 11:52 47.34211 19.17756 34142 ft 425 kts 273°
2026-04-26 11:53 47.34598 19.13560 33659 ft 421 kts 282°
2026-04-26 11:53 47.35416 19.09426 33150 ft 417 kts 290°
2026-04-26 11:53 47.36481 19.05512 32660 ft 413 kts 293°
2026-04-26 11:54 47.38841 18.97808 31695 ft 406 kts 294°
2026-04-26 11:54 47.40014 18.94027 31226 ft 403 kts 294°
2026-04-26 11:54 47.41192 18.90289 30766 ft 399 kts 295°
2026-04-26 11:54 47.42372 18.86568 30309 ft 396 kts 295°
2026-04-26 11:55 47.43511 18.82941 29869 ft 393 kts 295°
2026-04-26 11:55 47.44656 18.79271 29427 ft 390 kts 295°
2026-04-26 11:55 47.45785 18.75633 28985 ft 387 kts 294°
2026-04-26 11:55 47.46899 18.72028 28546 ft 384 kts 294°
2026-04-26 11:56 47.47997 18.68468 28110 ft 381 kts 294°
2026-04-26 11:56 47.49096 18.64897 27673 ft 378 kts 294°
2026-04-26 11:56 47.50184 18.61355 27238 ft 375 kts 294°
2026-04-26 11:56 47.51257 18.57858 26809 ft 372 kts 294°
2026-04-26 11:57 47.52321 18.54389 26381 ft 370 kts 294°
2026-04-26 11:57 47.53373 18.50962 25958 ft 367 kts 294°
2026-04-26 11:57 47.54358 18.47463 25531 ft 364 kts 290°
2026-04-26 11:57 47.55178 18.43930 25111 ft 362 kts 288°
2026-04-26 11:58 47.55913 18.40432 24697 ft 359 kts 287°
2026-04-26 11:58 47.56635 18.36898 24279 ft 357 kts 287°
2026-04-26 11:58 47.57353 18.33404 23866 ft 354 kts 287°
2026-04-26 11:58 47.58072 18.29921 23451 ft 352 kts 287°
2026-04-26 11:59 47.58790 18.26459 23041 ft 350 kts 287°
2026-04-26 11:59 47.59504 18.23022 22631 ft 348 kts 287°
2026-04-26 11:59 47.60217 18.19597 22223 ft 345 kts 287°
2026-04-26 11:59 47.60922 18.16208 21818 ft 343 kts 287°
2026-04-26 12:00 47.61624 18.12837 21417 ft 341 kts 287°
2026-04-26 12:00 47.62322 18.09487 21018 ft 339 kts 287°
2026-04-26 12:00 47.63013 18.06164 20623 ft 337 kts 287°
2026-04-26 12:00 47.63696 18.02883 20233 ft 335 kts 287°
2026-04-26 12:01 47.64387 17.99593 19842 ft 333 kts 288°
2026-04-26 12:01 47.65081 17.96351 19457 ft 332 kts 288°
2026-04-26 12:01 47.65794 17.93085 19067 ft 330 kts 288°
2026-04-26 12:01 47.66486 17.89860 18685 ft 328 kts 287°
2026-04-26 12:02 47.67170 17.86633 18302 ft 326 kts 287°
2026-04-26 12:02 47.67843 17.83424 17923 ft 324 kts 287°
2026-04-26 12:02 47.68509 17.80225 17545 ft 322 kts 287°
2026-04-26 12:02 47.69163 17.77064 17175 ft 321 kts 287°
2026-04-26 12:03 47.69815 17.73896 16804 ft 319 kts 287°
2026-04-26 12:03 47.70460 17.70757 16434 ft 317 kts 287°
2026-04-26 12:03 47.71099 17.67634 16067 ft 315 kts 287°
2026-04-26 12:03 47.71733 17.64531 15703 ft 314 kts 287°
2026-04-26 12:04 47.72356 17.61475 15348 ft 312 kts 287°
2026-04-26 12:04 47.72985 17.58391 14984 ft 311 kts 287°
2026-04-26 12:04 47.73611 17.55327 14633 ft 309 kts 287°
2026-04-26 12:04 47.74204 17.52271 14288 ft 307 kts 283°
2026-04-26 12:05 47.74422 17.49129 14014 ft 304 kts 271°
2026-04-26 12:05 47.74374 17.45971 13849 ft 309 kts 267°
2026-04-26 12:05 47.74213 17.42744 13681 ft 314 kts 264°
2026-04-26 12:05 47.73991 17.39494 13513 ft 317 kts 264°
2026-04-26 12:06 47.73761 17.36236 13342 ft 317 kts 264°
2026-04-26 12:06 47.73530 17.33024 13176 ft 316 kts 264°
2026-04-26 12:06 47.73296 17.29781 13017 ft 315 kts 264°
2026-04-26 12:06 47.73060 17.26552 12855 ft 314 kts 264°
2026-04-26 12:07 47.72824 17.23327 12693 ft 313 kts 264°
2026-04-26 12:07 47.72586 17.20101 12530 ft 313 kts 264°
2026-04-26 12:07 47.72349 17.16885 12366 ft 312 kts 264°
2026-04-26 12:07 47.72113 17.13693 12204 ft 311 kts 264°
2026-04-26 12:08 47.71878 17.10503 12042 ft 310 kts 264°
2026-04-26 12:08 47.72028 17.07359 11874 ft 309 kts 286°
2026-04-26 12:08 47.73117 17.04632 11690 ft 309 kts 315°
2026-04-26 12:08 47.74919 17.02991 11520 ft 308 kts 340°
2026-04-26 12:09 47.76999 17.02252 11354 ft 307 kts 350°
2026-04-26 12:09 47.79095 17.01575 11184 ft 306 kts 345°
2026-04-26 12:09 47.81147 17.00700 10838 ft 310 kts 342°
2026-04-26 12:09 47.83212 16.99709 10605 ft 309 kts 342°
2026-04-26 12:10 47.85230 16.98732 10438 ft 306 kts 342°
2026-04-26 12:10 47.87244 16.97775 10275 ft 301 kts 343°
2026-04-26 12:10 47.89221 16.96858 10115 ft 292 kts 342°
2026-04-26 12:10 47.91120 16.95918 9962 ft 284 kts 341°
2026-04-26 12:11 47.92986 16.95004 9810 ft 279 kts 342°
2026-04-26 12:11 47.94813 16.94111 9662 ft 275 kts 341°
2026-04-26 12:11 47.96419 16.92623 9503 ft 274 kts 315°
2026-04-26 12:11 47.97388 16.90185 9316 ft 275 kts 285°
2026-04-26 12:12 47.97363 16.87419 9163 ft 273 kts 255°
2026-04-26 12:12 47.96584 16.84837 9048 ft 273 kts 243°
2026-04-26 12:12 47.95852 16.82227 8912 ft 273 kts 250°
2026-04-26 12:12 47.95322 16.80526 8798 ft 272 kts 236°
2026-04-26 12:13 47.93293 16.78455 8537 ft 274 kts 194°
2026-04-26 12:13 47.91392 16.78584 8289 ft 271 kts 163°
2026-04-26 12:13 47.89633 16.79553 8142 ft 269 kts 159°
2026-04-26 12:13 47.87888 16.80563 7988 ft 269 kts 158°
2026-04-26 12:14 47.86131 16.81493 7841 ft 268 kts 163°
2026-04-26 12:14 47.84342 16.82230 7697 ft 268 kts 165°
2026-04-26 12:14 47.82536 16.82951 7553 ft 267 kts 165°
2026-04-26 12:14 47.80747 16.83669 7409 ft 264 kts 165°
2026-04-26 12:15 47.79013 16.84369 7256 ft 259 kts 165°
2026-04-26 12:15 47.77286 16.85077 7109 ft 255 kts 165°
2026-04-26 12:15 47.75576 16.85777 6968 ft 254 kts 165°
2026-04-26 12:15 47.73869 16.86476 6829 ft 254 kts 165°
2026-04-26 12:16 47.72131 16.86649 6664 ft 253 kts 192°
2026-04-26 12:16 47.70624 16.85371 6473 ft 254 kts 225°
2026-04-26 12:16 47.69807 16.83082 6249 ft 252 kts 254°
2026-04-26 12:16 47.69427 16.80559 6105 ft 251 kts 257°
2026-04-26 12:17 47.69234 16.78001 5935 ft 250 kts 276°
2026-04-26 12:17 47.69875 16.75626 5785 ft 251 kts 306°
2026-04-26 12:17 47.71264 16.74131 5565 ft 249 kts 339°
2026-04-26 12:17 47.72952 16.73599 5397 ft 249 kts 350°
2026-04-26 12:18 47.74628 16.73104 5211 ft 248 kts 349°
2026-04-26 12:18 47.76306 16.72602 5028 ft 243 kts 348°
2026-04-26 12:18 47.77925 16.72030 4852 ft 235 kts 345°
2026-04-26 12:18 47.79479 16.71389 4684 ft 228 kts 344°
2026-04-26 12:19 47.80983 16.70753 4523 ft 220 kts 344°
2026-04-26 12:19 47.82432 16.70143 4374 ft 214 kts 344°
2026-04-26 12:19 47.83856 16.69543 4233 ft 211 kts 344°
2026-04-26 12:19 47.85265 16.68962 4092 ft 209 kts 345°
2026-04-26 12:20 47.86632 16.68407 3966 ft 202 kts 345°
2026-04-26 12:20 47.87957 16.67869 3840 ft 189 kts 345°
2026-04-26 12:20 47.89174 16.67382 3709 ft 172 kts 345°
2026-04-26 12:20 47.90281 16.66932 3593 ft 158 kts 345°
2026-04-26 12:21 47.91319 16.66505 3467 ft 151 kts 344°
2026-04-26 12:21 47.92312 16.66093 3349 ft 146 kts 344°
2026-04-26 12:21 47.93281 16.65689 3246 ft 144 kts 344°
2026-04-26 12:21 47.93920 16.65422 3182 ft 144 kts 344°
2026-04-26 12:22 47.94250 16.65284 3149 ft 145 kts 344°
2026-04-26 12:22 47.96139 16.64492 2951 ft 144 kts 344°
2026-04-26 12:22 47.97122 16.64079 2778 ft 145 kts 344°
2026-04-26 12:22 47.98069 16.63681 2667 ft 141 kts 344°
2026-04-26 12:23 47.99008 16.63286 2581 ft 139 kts 345°
2026-04-26 12:23 47.99933 16.62897 2406 ft 136 kts 346°
2026-04-26 12:23 48.00832 16.62519 2218 ft 133 kts 346°
2026-04-26 12:23 48.01710 16.62149 2042 ft 130 kts 346°
2026-04-26 12:24 48.02566 16.61789 1872 ft 128 kts 346°
2026-04-26 12:24 48.03424 16.61427 1703 ft 128 kts 346°
2026-04-26 12:24 48.04281 16.61066 1533 ft 126 kts 346°
2026-04-26 12:25 48.05937 16.60363 1191 ft 121 kts 346°
2026-04-26 12:25 48.06749 16.60014 1030 ft 123 kts 346°
2026-04-26 12:25 48.07568 16.59671 891 ft 124 kts 346°
2026-04-26 12:25 48.08404 16.59326 732 ft 124 kts 346°
2026-04-26 12:26 48.09238 16.58975 609 ft 120 kts 346°
2026-04-26 12:26 48.09850 16.58720 608 ft 58 kts 342°
2026-04-26 12:26 48.10088 16.58620 608 ft 30 kts 345°
2026-04-26 12:26 48.10284 16.58533 608 ft 27 kts 341°
2026-04-26 12:27 48.10419 16.58374 608 ft 21 kts 300°
2026-04-26 12:27 48.10475 16.58221 608 ft 0 kts 298°
2026-04-26 12:29 48.10479 16.58206 608 ft 5 kts 283°
2026-04-26 12:29 48.10508 16.58021 608 ft 11 kts 342°
2026-04-26 12:30 48.10585 16.57989 608 ft 13 kts 345°
2026-04-26 12:30 48.10653 16.57960 608 ft 17 kts 346°
2026-04-26 12:30 48.10689 16.57946 608 ft 16 kts 345°
2026-04-26 12:31 48.10943 16.57838 608 ft 0 kts 344°
2026-04-26 12:33 48.10990 16.57818 608 ft 0 kts 345°
2026-04-26 12:33 48.11010 16.57810 608 ft 7 kts 344°
2026-04-26 12:33 48.11072 16.57783 608 ft 12 kts 344°
2026-04-26 12:33 48.11144 16.57735 608 ft 14 kts 316°
2026-04-26 12:34 48.11197 16.57599 608 ft 16 kts 295°
2026-04-26 12:34 48.11246 16.57447 608 ft 17 kts 296°
2026-04-26 12:34 48.11306 16.57263 608 ft 21 kts 296°
2026-04-26 12:34 48.11365 16.57084 608 ft 18 kts 296°
2026-04-26 12:35 48.11412 16.56940 608 ft 15 kts 294°
2026-04-26 12:35 48.11455 16.56805 608 ft 16 kts 296°
2026-04-26 12:35 48.11511 16.56635 608 ft 18 kts 297°
2026-04-26 12:35 48.11566 16.56467 608 ft 18 kts 296°
2026-04-26 12:36 48.11618 16.56306 608 ft 19 kts 296°
2026-04-26 12:36 48.11673 16.56137 608 ft 15 kts 296°
2026-04-26 12:36 48.11725 16.55976 608 ft 17 kts 295°
2026-04-26 12:36 48.11782 16.55801 608 ft 18 kts 294°
2026-04-26 12:37 48.11828 16.55660 608 ft 17 kts 296°
2026-04-26 12:37 48.11879 16.55496 608 ft 16 kts 288°
2026-04-26 12:37 48.11921 16.55335 608 ft 16 kts 296°
2026-04-26 12:37 48.11969 16.55185 608 ft 16 kts 296°
2026-04-26 12:38 48.12018 16.55037 608 ft 18 kts 297°
2026-04-26 12:38 48.12070 16.54875 608 ft 15 kts 296°
2026-04-26 12:38 48.12117 16.54733 608 ft 13 kts 296°
2026-04-26 12:38 48.12157 16.54612 608 ft 14 kts 296°
2026-04-26 12:39 48.12206 16.54462 608 ft 15 kts 295°
2026-04-26 12:39 48.12238 16.54363 608 ft 11 kts 296°
2026-04-26 12:39 48.12277 16.54244 608 ft 13 kts 296°
2026-04-26 12:39 48.12307 16.54148 608 ft 8 kts 294°
2026-04-26 12:40 48.12325 16.54088 608 ft 3 kts 293°
2026-04-26 12:40 48.12330 16.54070 608 ft 0 kts 292°